Weather reports worldwide

Advertisment
Wakefield, va, United States of America (2074226): temperature & dewpoint: 13.11.2019 13:00:00 - 19.11.2019 13:00:00 (EST)Wakefield, va, United States of America (2074226): wind speed: 13.11.2019 13:00:00 - 19.11.2019 13:00:00 (EST)Wakefield, va, United States of America (2074226): wind direction: 13.11.2019 13:00:00 - 19.11.2019 13:00:00 (EST)Wakefield, va, United States of America (2074226): reduced air pressure: 13.11.2019 13:00:00 - 19.11.2019 13:00:00 (EST)Wakefield, va, United States of America (2074226): visibility: 13.11.2019 13:00:00 - 19.11.2019 13:00:00 (EST)Wakefield, va, United States of America (2074226): precipitation: 13.11.2019 13:00:00 - 19.11.2019 13:00:00 (EST)
Date & Time tt [°C] td [°C] ff [km/h] ff [kn] dd ppp [hPa] vv [km] rr [mm]
19.11.2019 13:00:00 8,3 5,6 5 3 - 1010,7 6 -
19.11.2019 12:00:00 7,2 5,6 8 4 NNW 1011,0 4,8 -
19.11.2019 11:00:00 7,2 5,6 5 3 W 1011,6 4,8 -
19.11.2019 10:00:00 6,7 5,0 5 3 WNW 1011,9 4,8 -
19.11.2019 09:00:00 6,7 5,6 5 3 - 1011,8 3,2 -
19.11.2019 08:00:00 6,7 5,6 9 5 WSW 1011,5 4,8 -
19.11.2019 07:00:00 6,7 5,6 8 4 SW 1010,5 4,8 -
19.11.2019 06:00:00 7,2 6,1 8 4 W 1009,4 4,8 -
19.11.2019 05:00:00 7,2 6,1 5 3 - 1008,9 4,0 -
19.11.2019 04:00:00 7,8 6,7 5 3 WSW 1009,4 0,8 -
19.11.2019 03:00:00 7,8 6,7 8 4 WSW 1009,0 4,0 -
19.11.2019 02:00:00 7,8 7,2 8 4 SW 1009,2 4,0 -
19.11.2019 01:00:00 7,8 7,2 9 5 SW 1009,2 6 -
19.11.2019 00:00:00 7,8 7,2 8 4 SW 1009,1 2,0 -
18.11.2019 23:00:00 7,8 7,2 5 3 SSW 1008,8 2,8 -
18.11.2019 22:00:00 7,8 6,7 0 0 N 1008,4 4,0 0,5
18.11.2019 21:00:00 7,8 6,7 0 0 N 1008,6 3,2 0,3
18.11.2019 20:00:00 7,8 6,7 0 0 N 1008,1 4,0 0,3
18.11.2019 19:00:00 7,8 6,7 0 0 N 1008,4 6 0,0
18.11.2019 18:00:00 8,3 6,7 0 0 N 1008,2 10 0,0
18.11.2019 17:00:00 8,9 5,6 0 0 N 1008,2 11 0,0
18.11.2019 16:00:00 8,9 5,6 0 0 N 1008,1 15 -
18.11.2019 15:00:00 9,4 5,0 8 4 WNW 1008,0 13 -
18.11.2019 14:00:00 9,4 5,0 0 0 N 1007,6 16 -
18.11.2019 13:00:00 8,9 4,4 8 4 - 1008,3 11 -
18.11.2019 12:00:00 - - - - - - - -
18.11.2019 11:00:00 7,2 3,9 9 5 NE 1010,4 10 -
18.11.2019 10:00:00 6,7 4,4 8 4 NNW 1011,5 8 -
18.11.2019 09:00:00 6,1 4,4 8 4 - 1011,6 6 -
18.11.2019 08:00:00 6,1 4,4 8 4 - 1011,8 3,2 -
18.11.2019 07:00:00 5,6 4,4 8 4 N 1011,4 4,0 -
18.11.2019 06:00:00 5,6 4,4 11 6 - 1011,2 4,0 -
18.11.2019 05:00:00 5,6 4,4 8 4 - 1011,4 2,4 -
18.11.2019 04:00:00 5,6 4,4 9 5 NNW 1011,3 2,8 -
18.11.2019 03:00:00 5,6 4,4 11 6 N 1011,9 2,8 -
18.11.2019 02:00:00 5,6 4,4 9 5 NNW 1012,2 3,2 -
18.11.2019 01:00:00 6,1 3,9 9 5 - 1012,6 6 -
18.11.2019 00:00:00 6,1 3,9 9 5 - 1013,6 8 -
17.11.2019 23:00:00 6,1 4,4 9 5 N 1013,8 10 -
17.11.2019 22:00:00 6,7 4,4 9 5 N 1014,3 11 -
17.11.2019 21:00:00 6,7 4,4 9 5 - 1014,7 11 -
17.11.2019 20:00:00 7,2 3,9 11 6 - 1015,4 16 -
17.11.2019 19:00:00 7,2 3,9 9 5 - 1015,8 16 -
17.11.2019 18:00:00 7,8 3,3 13 7 N 1016,0 16 -
17.11.2019 17:00:00 7,8 2,8 13 7 N 1015,9 16 -
17.11.2019 16:00:00 8,3 2,8 9 5 - 1016,3 16 -
17.11.2019 15:00:00 8,9 2,8 9 5 N 1016,4 16 -
17.11.2019 14:00:00 8,9 3,3 13 7 NNE 1016,9 16 -
17.11.2019 13:00:00 8,9 3,3 13 7 NNE 1017,4 16 -
17.11.2019 12:00:00 8,3 2,8 13 7 N 1018,4 16 -
17.11.2019 11:00:00 7,2 2,2 16 9 NNE 1019,8 16 -
17.11.2019 10:00:00 6,1 1,7 13 7 N 1020,5 16 -
17.11.2019 09:00:00 6,1 1,1 15 8 N 1020,5 16 -
17.11.2019 08:00:00 6,1 1,1 13 7 N 1020,2 16 -
17.11.2019 07:00:00 5,6 1,1 13 7 NNE 1020,2 16 -
17.11.2019 06:00:00 5,6 0,6 15 8 N 1019,9 16 -
17.11.2019 05:00:00 5,6 0,6 15 8 N 1020,2 16 -
17.11.2019 04:00:00 5,0 1,1 9 5 - 1020,6 16 -
17.11.2019 03:00:00 5,0 0,6 15 8 N 1020,7 16 -
17.11.2019 02:00:00 5,0 0,6 15 8 N 1021,1 16 -
17.11.2019 01:00:00 5,6 0,6 11 6 - 1021,6 16 -
17.11.2019 00:00:00 6,1 1,1 16 9 N 1022,2 16 -
16.11.2019 23:00:00 6,1 1,7 13 7 N 1022,5 16 -
16.11.2019 22:00:00 6,1 1,1 13 7 NNE 1022,7 16 -
16.11.2019 21:00:00 6,1 1,1 16 9 NNE 1022,8 16 -
16.11.2019 20:00:00 6,7 0,6 16 9 NNE 1022,9 16 -
16.11.2019 19:00:00 7,2 0,0 15 8 NNE 1022,9 16 -
16.11.2019 18:00:00 7,2 0,0 18 10 NNE 1023,6 16 -
16.11.2019 17:00:00 7,8 0,6 15 8 NE 1023,9 15 -
16.11.2019 16:00:00 7,8 1,1 15 8 NE 1023,4 16 -
16.11.2019 15:00:00 7,8 0,6 18 10 NNE 1022,8 16 -
16.11.2019 14:00:00 7,8 1,1 11 6 - 1023,0 15 -
16.11.2019 13:00:00 7,8 1,7 15 8 NNE 1023,4 15 -
16.11.2019 12:00:00 7,8 1,1 8 4 - 1023,7 13 -
16.11.2019 11:00:00 7,2 1,1 15 8 N 1024,1 13 -
16.11.2019 10:00:00 7,2 0,6 15 8 N 1023,7 13 -
16.11.2019 09:00:00 6,7 -0,6 13 7 NNE 1023,7 11 -
16.11.2019 08:00:00 6,1 -0,6 18 10 NNE 1023,4 10 -
16.11.2019 07:00:00 6,1 0,0 9 5 - 1022,6 10 -
16.11.2019 06:00:00 6,7 -0,6 16 9 NNE 1021,7 13 -
16.11.2019 05:00:00 8,3 -0,6 16 9 N 1020,9 16 -
16.11.2019 04:00:00 8,3 0,0 13 7 NNE 1019,9 16 -
16.11.2019 03:00:00 8,9 0,6 11 6 NNE 1019,8 16 -
16.11.2019 02:00:00 8,9 1,1 8 4 - 1020,0 16 -
16.11.2019 01:00:00 8,9 1,7 9 5 - 1020,2 16 -
16.11.2019 00:00:00 8,3 3,3 8 4 - 1020,9 16 0,0
15.11.2019 23:00:00 7,8 3,9 5 3 - 1021,4 13 0,0
15.11.2019 22:00:00 7,8 3,9 8 4 NNE 1021,4 16 0,0
15.11.2019 21:00:00 7,2 5,0 0 0 N 1021,6 11 0,0
15.11.2019 20:00:00 7,8 3,9 0 0 N 1021,6 13 0,5
15.11.2019 19:00:00 7,8 4,4 5 3 N 1021,4 16 0,0
15.11.2019 18:00:00 8,3 3,3 5 3 - 1021,9 16 -
15.11.2019 17:00:00 8,3 3,3 5 3 NNE 1020,8 16 -
15.11.2019 16:00:00 8,9 3,3 8 4 - 1021,9 16 -
15.11.2019 15:00:00 8,9 3,3 5 3 - 1021,9 16 -
15.11.2019 14:00:00 9,4 4,4 9 5 - 1022,2 16 -
15.11.2019 13:00:00 8,9 5,6 9 5 ENE 1022,5 16 -
15.11.2019 12:00:00 8,3 6,1 8 4 NE 1023,7 15 -
15.11.2019 11:00:00 7,8 6,7 5 3 - 1024,4 4,8 -
15.11.2019 10:00:00 7,2 6,1 8 4 - 1024,6 4,0 0,3
15.11.2019 09:00:00 6,7 5,6 5 3 NE 1024,6 4,0 0,0
15.11.2019 08:00:00 6,1 5,0 5 3 - 1025,1 4,0 0,0
15.11.2019 07:00:00 5,6 5,0 9 5 NNW 1025,0 4,0 0,3
15.11.2019 06:00:00 5,6 5,0 5 3 - 1025,2 3,2 0,3
15.11.2019 05:00:00 6,1 5,0 0 0 N 1024,2 4,0 0,3
15.11.2019 04:00:00 5,6 4,4 0 0 N 1024,3 3,2 0,0
15.11.2019 03:00:00 5,0 4,4 8 4 NNW 1025,1 1,6 0,0
15.11.2019 02:00:00 5,0 3,9 0 0 N 1025,8 2,0 1,8
15.11.2019 01:00:00 5,0 2,8 8 4 N 1025,9 4,0 0,0
15.11.2019 00:00:00 6,7 1,1 8 4 N 1025,5 16 -
14.11.2019 23:00:00 6,7 1,1 5 3 - 1026,1 16 -
14.11.2019 22:00:00 6,7 1,1 8 4 N 1026,5 16 -
14.11.2019 21:00:00 6,7 1,1 0 0 N 1026,8 16 -
14.11.2019 20:00:00 6,1 1,1 8 4 NNW 1027,0 16 -
14.11.2019 19:00:00 6,1 1,7 0 0 N 1026,9 16 -
14.11.2019 18:00:00 6,7 1,7 0 0 N 1027,2 16 -
14.11.2019 17:00:00 7,2 1,1 0 0 N 1027,2 16 -
14.11.2019 16:00:00 8,3 0,0 5 3 - 1027,1 16 -
14.11.2019 15:00:00 7,8 -0,6 0 0 N 1027,3 16 -
14.11.2019 14:00:00 7,2 -1,1 0 0 N 1027,8 16 -
14.11.2019 13:00:00 6,1 -1,7 0 0 N 1028,8 16 -
14.11.2019 12:00:00 5,6 -2,2 0 0 N 1029,5 16 -
14.11.2019 11:00:00 5,0 -3,3 0 0 N 1030,7 16 -
14.11.2019 10:00:00 2,8 -4,4 5 3 ENE 1031,7 16 -
14.11.2019 09:00:00 -0,6 -3,3 0 0 N 1031,9 16 -
14.11.2019 08:00:00 -2,8 -5,0 0 0 N 1031,3 15 -
14.11.2019 07:00:00 -5,0 -7,2 0 0 N 1031,1 15 -
14.11.2019 06:00:00 -5,0 -7,2 0 0 N 1030,8 16 -
14.11.2019 05:00:00 -5,6 -7,8 0 0 N 1030,1 16 -
14.11.2019 04:00:00 -6,1 -7,8 0 0 N 1030,5 16 -
14.11.2019 03:00:00 -5,6 -7,8 0 0 N 1030,9 16 -
14.11.2019 02:00:00 -5,6 -7,2 0 0 N 1030,7 15 -
14.11.2019 01:00:00 -5,0 -7,2 0 0 N 1031,0 16 -
14.11.2019 00:00:00 -4,4 -6,7 0 0 N 1031,5 15 -
13.11.2019 23:00:00 -3,9 -6,1 0 0 N 1032,0 16 -
13.11.2019 22:00:00 -3,9 -6,1 0 0 N 1032,2 16 -
13.11.2019 21:00:00 -3,3 -5,6 0 0 N 1032,0 16 -
13.11.2019 20:00:00 -2,8 -5,6 0 0 N 1031,3 16 -
13.11.2019 19:00:00 -2,2 -5,6 0 0 N 1030,8 16 -
13.11.2019 18:00:00 -1,7 -6,1 0 0 N 1030,1 16 -
13.11.2019 17:00:00 1,1 -7,8 0 0 N 1029,8 16 -
13.11.2019 16:00:00 2,8 -10,0 5 3 NNE 1030,1 16 -
13.11.2019 15:00:00 3,9 -10,0 0 0 N 1030,0 16 -
13.11.2019 14:00:00 2,8 -9,4 0 0 N 1030,0 16 -
13.11.2019 13:00:00 2,2 -10,6 9 5 - 1030,7 16 -

tt = temperature
td = dewpoint
ff = wind speed
dd = wind direction
ppp = reduced air pressure
vv = visibility
rr = precipitation

Next stations